• In Netherlands
  • List of Countries
  • For 7 days
  • Water Temperature
  • Satellite Maps
  • Weather Map
  • Weather Widgets
  • user-avatar
    Login

    Hourly Weather Saarbrucken

    Today, 26 May, Saturday

    Time Temperature Precipitation Wind Pressure Humidity
    00:00 +17°C° 0 mm 2 mps 741 mmHg 87%
    01:00 +16°C° 0 mm 2 mps 741 mmHg 88%
    02:00 +16°C° 0 mm 2 mps 741 mmHg 89%
    03:00 +16°C° 0 mm 2 mps 741 mmHg 91%
    04:00 +17°C° 0 mm 2 mps 741 mmHg 89%
    05:00 +18°C° 0 mm 2 mps 742 mmHg 87%
    06:00 +19°C° 0 mm 3 mps 742 mmHg 85%
    07:00 +20°C° 0 mm 3 mps 742 mmHg 80%
    08:00 +22°C° 0 mm 3 mps 742 mmHg 75%
    09:00 +25°C° 0 mm 3 mps 742 mmHg 70%
    10:00 +26°C° 0 mm 3 mps 742 mmHg 66%
    11:00 +27°C° 0 mm 3 mps 742 mmHg 62%
    12:00 +28°C° 0 mm 3 mps 742 mmHg 58%
    13:00 +28°C° 0 mm 3 mps 742 mmHg 59%
    14:00 +28°C° 0 mm 3 mps 742 mmHg 59%
    15:00 +28°C° 0 mm 2 mps 742 mmHg 59%
    16:00 +27°C° 0 mm 2 mps 742 mmHg 64%
    17:00 +25°C° 0 mm 2 mps 742 mmHg 70%
    18:00 +24°C° 0 mm 2 mps 742 mmHg 75%
    19:00 +23°C° 0 mm 2 mps 742 mmHg 75%
    20:00 +21°C° 0 mm 2 mps 742 mmHg 75%
    21:00 +20°C° 0 mm 2 mps 742 mmHg 75%
    22:00 +20°C° 0 mm 2 mps 742 mmHg 78%
    23:00 +19°C° 0 mm 2 mps 742 mmHg 81%

    Tomorrow, 27 May, Sunday

    Time Temperature Precipitation Wind Pressure Humidity
    00:00 +18°C° 0 mm 2 mps 742 mmHg 84%
    01:00 +18°C° 0 mm 2 mps 741 mmHg 86%
    02:00 +17°C° 0 mm 2 mps 741 mmHg 89%
    03:00 +17°C° 0 mm 2 mps 741 mmHg 91%
    04:00 +18°C° 0 mm 2 mps 741 mmHg 88%
    05:00 +19°C° 0 mm 2 mps 741 mmHg 86%
    06:00 +20°C° 0 mm 2 mps 741 mmHg 84%
    07:00 +23°C° 0 mm 2 mps 741 mmHg 79%
    08:00 +24°C° 0 mm 2 mps 742 mmHg 74%
    09:00 +26°C° 0 mm 2 mps 742 mmHg 70%
    10:00 +26°C° 1.1 mm 2 mps 741 mmHg 68%
    11:00 +27°C° 1.1 mm 2 mps 741 mmHg 67%
    12:00 +28°C° 1.1 mm 2 mps 741 mmHg 66%
    13:00 +28°C° 0.2 mm 2 mps 741 mmHg 65%
    14:00 +28°C° 0.2 mm 2 mps 740 mmHg 63%
    15:00 +28°C° 0.2 mm 2 mps 740 mmHg 62%
    16:00 +27°C° 0 mm 2 mps 740 mmHg 66%
    17:00 +26°C° 0 mm 2 mps 740 mmHg 71%
    18:00 +25°C° 0 mm 2 mps 739 mmHg 76%
    19:00 +24°C° 0.1 mm 2 mps 740 mmHg 77%
    20:00 +23°C° 0.1 mm 2 mps 740 mmHg 79%
    21:00 +20°C° 0.1 mm 2 mps 740 mmHg 80%
    22:00 +20°C° 0.2 mm 2 mps 740 mmHg 82%
    23:00 +20°C° 0.2 mm 1 mps 740 mmHg 84%

    Day after tomorrow, 28 May, Monday

    Time Temperature Precipitation Wind Pressure Humidity
    00:00 +20°C° 0.2 mm 1 mps 740 mmHg 86%
    01:00 +19°C° 0 mm 1 mps 740 mmHg 87%
    02:00 +19°C° 0 mm 1 mps 740 mmHg 88%
    03:00 +19°C° 0 mm 1 mps 740 mmHg 88%
    04:00 +20°C° 0 mm 1 mps 740 mmHg 87%
    05:00 +21°C° 0 mm 1 mps 740 mmHg 86%
    06:00 +22°C° 0 mm 1 mps 740 mmHg 85%
    07:00 +23°C° 0.1 mm 1 mps 741 mmHg 79%
    08:00 +25°C° 0.1 mm 2 mps 741 mmHg 74%
    09:00 +26°C° 0.1 mm 2 mps 741 mmHg 68%
    10:00 +27°C° 0.3 mm 2 mps 741 mmHg 65%
    11:00 +28°C° 0.3 mm 2 mps 741 mmHg 62%
    12:00 +29°C° 0.3 mm 2 mps 741 mmHg 59%
    13:00 +29°C° 0.2 mm 2 mps 740 mmHg 61%
    14:00 +29°C° 0.2 mm 2 mps 740 mmHg 62%
    15:00 +29°C° 0.2 mm 2 mps 739 mmHg 64%
    16:00 +28°C° 0.3 mm 2 mps 739 mmHg 68%
    17:00 +27°C° 0.3 mm 2 mps 739 mmHg 72%
    18:00 +26°C° 0.3 mm 2 mps 739 mmHg 77%
    19:00 +25°C° 1 mm 1 mps 739 mmHg 79%
    20:00 +23°C° 1 mm 1 mps 739 mmHg 82%
    21:00 +22°C° 1 mm 1 mps 740 mmHg 84%
    22:00 +21°C° 0.6 mm 1 mps 739 mmHg 85%
    23:00 +21°C° 0.6 mm 1 mps 739 mmHg 87%

    29 May, Tuesday

    Time Temperature Precipitation Wind Pressure Humidity
    00:00 +21°C° 0.6 mm 1 mps 739 mmHg 88%
    01:00 +20°C° 0.4 mm 1 mps 739 mmHg 89%
    02:00 +20°C° 0.4 mm 1 mps 739 mmHg 91%
    03:00 +20°C° 0.4 mm 1 mps 739 mmHg 92%
    04:00 +21°C° 0.9 mm 1 mps 739 mmHg 92%
    05:00 +21°C° 0.9 mm 1 mps 739 mmHg 92%
    06:00 +22°C° 0.9 mm 1 mps 739 mmHg 92%
    07:00 +23°C° 1.1 mm 1 mps 739 mmHg 87%
    08:00 +25°C° 1.1 mm 1 mps 739 mmHg 82%
    09:00 +26°C° 1.1 mm 2 mps 738 mmHg 77%
    10:00 +26°C° 0.9 mm 1 mps 738 mmHg 74%
    11:00 +27°C° 0.9 mm 1 mps 738 mmHg 72%
    12:00 +27°C° 0.9 mm 1 mps 738 mmHg 69%
    13:00 +27°C° 1.3 mm 1 mps 737 mmHg 71%
    14:00 +27°C° 1.3 mm 2 mps 737 mmHg 73%
    15:00 +26°C° 1.3 mm 2 mps 737 mmHg 76%
    16:00 +25°C° 0.8 mm 2 mps 737 mmHg 80%
    17:00 +24°C° 0.8 mm 2 mps 736 mmHg 85%
    18:00 +21°C° 0.8 mm 2 mps 736 mmHg 89%
    19:00 +21°C° 0.1 mm 2 mps 736 mmHg 90%
    20:00 +20°C° 0.1 mm 2 mps 736 mmHg 91%
    21:00 +20°C° 0.1 mm 1 mps 736 mmHg 92%
    22:00 +19°C° 0.1 mm 1 mps 736 mmHg 93%
    23:00 +19°C° 0.1 mm 1 mps 736 mmHg 94%

    30 May, Wednesday

    Time Temperature Precipitation Wind Pressure Humidity
    00:00 +18°C° 0.1 mm 1 mps 736 mmHg 94%
    01:00 +17°C° 0 mm 2 mps 736 mmHg 95%
    02:00 +16°C° 0 mm 2 mps 736 mmHg 95%
    03:00 +16°C° 0 mm 2 mps 735 mmHg 96%
    04:00 +17°C° 0 mm 2 mps 736 mmHg 95%
    05:00 +18°C° 0 mm 2 mps 736 mmHg 93%
    06:00 +19°C° 0 mm 2 mps 736 mmHg 92%
    07:00 +20°C° 0 mm 2 mps 736 mmHg 86%
    08:00 +23°C° 0 mm 2 mps 736 mmHg 80%
    09:00 +24°C° 0 mm 3 mps 736 mmHg 73%
    10:00 +25°C° 0 mm 3 mps 736 mmHg 70%
    11:00 +26°C° 0 mm 3 mps 736 mmHg 67%
    12:00 +27°C° 0 mm 3 mps 736 mmHg 63%
    13:00 +27°C° 0 mm 3 mps 735 mmHg 64%
    14:00 +27°C° 0 mm 3 mps 735 mmHg 64%
    15:00 +27°C° 0 mm 2 mps 735 mmHg 64%
    16:00 +26°C° 0 mm 2 mps 735 mmHg 69%
    17:00 +26°C° 0 mm 2 mps 735 mmHg 74%
    18:00 +25°C° 0 mm 1 mps 735 mmHg 79%
    19:00 +23°C° 0.1 mm 1 mps 736 mmHg 82%
    20:00 +22°C° 0.1 mm 1 mps 736 mmHg 85%
    21:00 +18°C° 0.1 mm 0 mps 736 mmHg 88%
    22:00 +18°C° 0 mm 0 mps 736 mmHg 89%
    23:00 +18°C° 0 mm 0 mps 736 mmHg 90%

    31 May, Thursday

    Time Temperature Precipitation Wind Pressure Humidity
    00:00 +17°C° 0 mm 0 mps 736 mmHg 91%
    01:00 +17°C° 0 mm 0 mps 736 mmHg 91%
    02:00 +17°C° 0 mm 0 mps 737 mmHg 92%
    03:00 +16°C° 0 mm 0 mps 737 mmHg 93%
    04:00 +17°C° 0.2 mm 0 mps 737 mmHg 92%
    05:00 +18°C° 0.2 mm 0 mps 737 mmHg 90%
    06:00 +19°C° 0.2 mm 0 mps 738 mmHg 89%
    07:00 +20°C° 0.7 mm 0 mps 738 mmHg 86%
    08:00 +24°C° 0.7 mm 1 mps 738 mmHg 82%
    09:00 +25°C° 0.7 mm 1 mps 738 mmHg 78%
    10:00 +25°C° 1 mm 1 mps 738 mmHg 79%
    11:00 +25°C° 1 mm 1 mps 738 mmHg 80%
    12:00 +25°C° 1 mm 1 mps 738 mmHg 80%
    13:00 +24°C° 0.8 mm 1 mps 738 mmHg 83%
    14:00 +24°C° 0.8 mm 2 mps 738 mmHg 85%
    15:00 +23°C° 0.8 mm 2 mps 737 mmHg 88%
    16:00 +23°C° 0.5 mm 2 mps 737 mmHg 89%
    17:00 +21°C° 0.5 mm 2 mps 737 mmHg 90%
    18:00 +21°C° 0.5 mm 2 mps 737 mmHg 91%
    19:00 +20°C° 0.3 mm 2 mps 738 mmHg 92%
    20:00 +19°C° 0.3 mm 2 mps 738 mmHg 92%
    21:00 +18°C° 0.3 mm 2 mps 738 mmHg 93%
    22:00 +18°C° 0.5 mm 2 mps 738 mmHg 93%
    23:00 +19°C° 0.5 mm 1 mps 738 mmHg 94%
    Show more